User: anonymous   Login
Location: Unspecified
(0.0000°N, 0.0000°E)
Time: 00:15:24
(UTC+00:00)
Language:

SICH 2 - Orbit

View from above orbital plane
View from above orbital plane
View from above satellite
View from above satellite

Ground track
Ground track

The orbit data is extracted from the following two-line orbital elements,

1 37794U 11044G   17328.30291267 +.00000103 +00000-0 +29981-4 0  9998
2 37794 098.0591 040.7127 0012051 331.2735 071.3110 14.61734551334345
Epoch (UTC): 24 November 2017 07:16:11
Eccentricity: 0.0012051
inclination: 98.0591°
perigee height: 679 km
apogee height: 696 km
right ascension of ascending node: 40.7127°
argument of perigee: 331.2735°
revolutions per day: 14.61734551
mean anomaly at epoch: 71.3110°
orbit number at epoch: 33434

The dashed part of the orbit path shows where the satellite is in the earth's shadow,  

DLR